Verona / Villafranca Airport

Jump to: basic info | weather | frequencies | runways | comments

Related pages: nearby airports | nearby navaids | notams | map

Basic information (top)

Codes: VRN LIPX
Location: lon 45.395699, lat 10.888500, elev 239 ft / 73 m msl
Status: large_airport
Scheduled airline service: yes
Links: Wikipedia Mobile

Weather (top)

Current conditions (rec'd 2014/07/31 17:15Z):

LIPX 311715Z 09004KT CAVOK 27/19 Q1009

Airport forecast (rec'd 2014/04/22 15:24Z):

TAF TAF LIPX 221400Z 2215/2324 VRB05KT 9999 SCT030 SCT070 
      TEMPO 2215/2218 SCT025CB SCT080 PROB30 
      TEMPO 2215/2218 TS

Frequencies (top)

Verify before use: may be inaccurate or out of date.

APP: 36.23 MHz (GARDA APP)
APP: 124.45 MHz (GARDA APP)
GND: 121.75 MHz (GND)
INFO: 123.25 MHz (PADOVA INFO)
TWR: 118.65 MHz (TWR)

Runways (top)

04/22: 10,064 x 148 ft (3,068 x 45 m) — paved — lighted — threshold 04 displaced 189 ft (58 m) — threshold 22 displaced 1,345 ft (410 m)

Latest comments (top)

Verona: Verona [read]

More... (top)

See also NOTAMs and nearby airports and navaids, or visit the Verona / Villafranca Airport page at the main OurAirports website..